Location: Tel Aviv
(32.0670°N, 34.7670°E)
Time: 08:24:13
(UTC+02:00)

Transit 2A Rocket - Pass Details

Date: 13 December 2023
Orbit: 590 x 905 km, 66.7° (Epoch: 01 March)

Event Time Altitude Azimuth Distance (km) Brightness Sun altitude
Rises 17:50:48 0° 193° (SSW) 3,117 8.6 -15.2°
Reaches altitude 10° 17:53:17 10° 188° (S) 2,148 7.7 -15.7°
Maximum altitude 17:57:58 52° 113° (ESE) 816 4.8 -16.6°
Enters shadow 17:59:56 30° 52° (NE) 1,151 5.4 -17.0°
